EW6114 Weather Reports


time (UTC)temp
C
wind
direction
speed
KPH
gust
KPH
rain 1hr
cm
rain 24hr
cm
rain mn
cm
humidity
%
barometer
mb
20260509024327 -17 152 0.0 0.0 0.00 0.00 0.00 1076.1
20260509023825 -17 164 0.0 0.0 0.00 0.00 0.00 1076.2
20260509023550 -17 116 0.0 0.0 0.00 0.00 0.00 1076.4
20260509023042 -17 103 0.0 0.0 0.00 0.00 0.00 1076.5
20260509022309 -17 144 0.0 0.0 0.00 0.00 0.00 1076.6
20260509021805 -17 162 0.0 0.0 0.00 0.00 0.00 1076.7
20260509021257 -17 138 0.0 0.0 0.00 0.00 0.00 1076.7
20260509020751 -17 112 0.0 0.0 0.00 0.00 0.00 1076.8
20260509020249 -17 148 0.0 0.0 0.00 0.00 0.00 1076.9
20260509015745 -17 110 0.0 0.0 0.00 0.00 0.00 1076.9
20260509015244 -17 125 0.0 0.0 0.00 0.00 0.00 1077.0
20260509014725 -17 160 0.0 0.0 0.00 0.00 0.00 1077.0
20260509014214 -17 112 0.0 0.0 0.00 0.00 0.00 1077.1
20260509013655 -17 118 0.0 0.0 0.00 0.00 0.00 1077.1
20260509013150 -17 162 0.0 0.0 0.00 0.00 0.00 1077.1
20260509012645 -17 188 0.0 0.0 0.00 0.00 0.00 1077.2
20260509012139 -17 196 0.0 0.0 0.00 0.00 0.00 1077.1
20260509011637 -17 170 0.0 0.0 0.00 0.00 0.00 1077.2
20260509011121 -17 133 0.0 0.0 0.00 0.00 0.00 1077.2
20260509010552 -17 136 0.0 0.0 0.00 0.00 0.00 1077.1
20260509010040 -17 133 0.0 0.0 0.00 0.00 0.00 1077.2
20260509005452 -17 115 0.0 0.0 0.00 0.00 0.00 1077.2
20260509004949 -17 194 0.0 0.0 0.00 0.00 0.00 1077.1
20260509004417 -17 111 0.0 0.0 0.00 0.00 0.00 1077.2
20260509003911 -17 168 0.0 0.0 0.00 0.00 0.00 1077.2
20260509003352 -17 143 0.0 0.0 0.00 0.00 0.00 1077.3
20260509002842 -17 125 0.0 0.0 0.00 0.00 0.00 1077.2
20260509002340 -17 197 0.0 0.0 0.00 0.00 0.00 1077.2
20260509001800 -17 166 0.0 0.0 0.00 0.00 0.00 1077.2
20260509001245 -17 189 0.0 0.0 0.00 0.00 0.00 1077.2
20260509000155 -17 123 0.0 0.0 0.00 0.00 0.00 1077.3
20260508235653 -17 175 0.0 0.0 0.00 0.00 0.00 1077.3
20260508235145 -17 143 0.0 0.0 0.00 0.00 0.00 1077.4
20260508234641 -17 153 0.0 0.0 0.00 0.00 0.00 1077.4
20260508234316 -17 153 0.0 0.0 0.00 0.00 0.00 1077.4
20260508233517 -17 153 0.0 0.0 0.00 0.00 0.00 1077.4
20260508232450 -17 161 0.0 0.0 0.00 0.00 0.00 1077.3
20260508231948 -17 177 0.0 0.0 0.00 0.00 0.00 1077.3
20260508231442 -17 163 0.0 0.0 0.00 0.00 0.00 1077.3
20260508230933 -17 173 0.0 0.0 0.00 0.00 0.00 1077.2
20260508230657 -17 116 0.0 0.0 0.00 0.00 0.00 1077.2
20260508225853 -17 204 0.0 0.0 0.00 0.00 0.00 1077.2
20260508225624 -17 146 0.0 0.0 0.00 0.00 0.00 1077.1
20260508225124 -17 185 0.0 0.0 0.00 0.00 0.00 1077.0
20260508224624 -17 131 0.0 0.0 0.00 0.00 0.00 1076.9
20260508223847 -17 0.0 0.0 0.00 0.00 0.00 1076.8
20260508223256 -17 0.0 0.0 0.00 0.00 0.00 1076.8
20260508222746 -17 0.0 0.0 0.00 0.00 0.00 1076.8
20260508222154 -17 0.0 0.0 0.00 0.00 0.00 1076.8
20260508221633 -17 0.0 0.0 0.00 0.00 0.00 1076.8
20260508221046 -17 0.0 0.0 0.00 0.00 0.00 1076.8
20260508220453 -17 0.0 0.0 0.00 0.00 0.00 1076.8
20260508215935 -17 0.0 0.0 0.00 0.00 0.00 1076.7
20260508215347 -17 0.0 0.0 0.00 0.00 0.00 1076.7
20260508214756 -17 0.0 0.0 0.00 0.00 0.00 1076.7
20260508214253 -17 0.0 0.0 0.00 0.00 0.00 1076.6
20260508214022 -17 0.0 0.0 0.00 0.00 0.00 1076.5
20260508213517 -17 0.0 0.0 0.00 0.00 0.00 1076.4
20260508212745 -17 0.0 0.0 0.00 0.00 0.00 1076.3
20260508212245 -17 0.0 0.0 0.00 0.00 0.00 1076.4
20260508211650 -17 138 0.0 0.0 0.00 0.00 0.00 1076.3
20260508211055 -17 138 0.0 0.0 0.00 0.00 0.00 1076.3
20260508210555 -17 138 0.0 0.0 0.00 0.00 0.00 1076.2
20260508210050 -17 138 0.0 0.0 0.00 0.00 0.00 1076.3
20260508205542 -17 138 0.0 0.0 0.00 0.00 0.00 1076.2
20260508205038 -17 138 0.0 0.0 0.00 0.00 0.00 1076.2
20260508204801 -17 138 0.0 0.0 0.00 0.00 0.00 1076.2
20260508203952 -17 138 0.0 0.0 0.00 0.00 0.00 1076.1
20260508203711 -17 138 0.0 0.0 0.00 0.00 0.00 1076.1
20260508203202 -17 139 0.0 0.0 0.00 0.00 0.00 1076.0
20260508202425 -17 138 0.0 0.0 0.00 0.00 0.00 1076.0
20260508201847 -17 138 0.0 0.0 0.00 0.00 0.00 1075.9
20260508201336 -17 138 0.0 0.0 0.00 0.00 0.00 1075.9
20260508200801 -17 138 0.0 0.0 0.00 0.00 0.00 1075.9
20260508200242 -17 138 0.0 0.0 0.00 0.00 0.00 1075.9
20260508195736 -17 138 0.0 0.0 0.00 0.00 0.00 1075.8
20260508195154 -17 138 0.0 0.0 0.00 0.00 0.00 1075.8
20260508194621 -17 138 0.0 0.0 0.00 0.00 0.00 1075.8
20260508194053 -17 138 0.0 0.0 0.00 0.00 0.00 1075.8
20260508193552 -17 138 0.0 0.0 0.00 0.00 0.00 1075.7
20260508193041 -17 138 0.0 0.0 0.00 0.00 0.00 1075.7
20260508192532 -17 138 0.0 0.0 0.00 0.00 0.00 1075.7
20260508191949 -17 138 0.0 0.0 0.00 0.00 0.00 1075.7
20260508191417 -17 138 0.0 0.0 0.00 0.00 0.00 1075.7
20260508185843 -17 347 0.0 0.0 0.00 0.00 0.00 1075.7
20260508185259 -17 139 0.0 0.0 0.00 0.00 0.00 1075.6
20260508184227 -17 140 0.0 0.0 0.00 0.00 0.00 1075.6
20260508183924 -17 140 0.0 0.0 0.00 0.00 0.00 1075.6
20260508183152 -17 140 0.0 0.0 0.00 0.00 0.00 1075.6
20260508182924 -17 140 0.0 0.0 0.00 0.00 0.00 1075.7
20260508182152 -17 140 0.0 0.0 0.00 0.00 0.00 1075.7
20260508181650 -17 140 0.0 0.0 0.00 0.00 0.00 1075.8
20260508181144 -17 140 0.0 0.0 0.00 0.00 0.00 1075.7
20260508180629 -17 140 0.0 0.0 0.00 0.00 0.00 1075.7
20260508180051 -17 142 0.0 0.0 0.00 0.00 0.00 1075.8
20260508175549 -17 142 0.0 0.0 0.00 0.00 0.00 1075.8
20260508175044 -17 142 0.0 0.0 0.00 0.00 0.00 1075.8
20260508174541 -17 133 0.0 0.0 0.00 0.00 0.00 1075.8
20260508174023 -17 132 0.0 0.0 0.00 0.00 0.00 1075.9
20260508173510 -17 150 0.0 0.0 0.00 0.00 0.00 1075.9
20260508173003 -17 148 0.0 0.0 0.00 0.00 0.00 1076.0
20260508172447 -17 147 0.0 0.0 0.00 0.00 0.00 1076.0
20260508171948 -17 105 0.0 0.0 0.00 0.00 0.00 1075.9
20260508171718 -17 158 0.0 0.0 0.00 0.00 0.00 1075.9
20260508170931 -17 141 0.0 0.0 0.00 0.00 0.00 1075.9
20260508170419 -17 347 0.0 0.0 0.00 0.00 0.00 1075.9
20260508165922 -17 156 0.0 0.0 0.00 0.00 0.00 1075.8
20260508165356 -17 182 0.0 0.0 0.00 0.00 0.00 1075.8
20260508165115 -17 119 0.0 0.0 0.00 0.00 0.00 1075.8
20260508164533 -17 160 0.0 0.0 0.00 0.00 0.00 1075.8
20260508163753 -17 159 0.0 0.0 0.00 0.00 0.00 1075.9
20260508163252 -17 160 0.0 0.0 0.00 0.00 0.00 1075.8
20260508162751 -17 159 0.0 0.0 0.00 0.00 0.00 1075.8
20260508162239 -17 159 0.0 0.0 0.00 0.00 0.00 1075.8
20260508161739 -17 159 0.0 0.0 0.00 0.00 0.00 1075.8
20260508161150 -17 162 0.0 0.0 0.00 0.00 0.00 1075.8
20260508160650 -17 160 0.0 0.0 0.00 0.00 0.00 1075.8
20260508155614 -17 151 0.0 0.0 0.00 0.00 0.00 1076.0
20260508154812 -17 172 0.0 0.0 0.00 0.00 0.00 1075.9
20260508154025 -17 135 0.0 0.0 0.00 0.00 0.00 1076.0
20260508153522 -17 164 0.0 0.0 0.00 0.00 0.00 1076.0
20260508153210 -17 164 0.0 0.0 0.00 0.00 0.00 1075.9
20260508152400 -17 164 0.0 0.0 0.00 0.00 0.00 1076.0
20260508151828 -17 164 0.0 0.0 0.00 0.00 0.00 1075.9
20260508151547 -17 172 0.0 0.0 0.00 0.00 0.00 1076.0
20260508151042 -17 173 0.0 0.0 0.00 0.00 0.00 1076.0
20260508150253 -17 142 0.0 0.0 0.00 0.00 0.00 1076.1
20260508145751 -17 180 0.0 0.0 0.00 0.00 0.00 1076.2
20260508145249 -17 158 0.0 0.0 0.00 0.00 0.00 1076.1
20260508144728 -17 157 0.0 0.0 0.00 0.00 0.00 1076.1
20260508144154 -17 156 0.0 0.0 0.00 0.00 0.00 1076.2
20260508143651 -17 156 0.0 0.0 0.00 0.00 0.00 1076.1
20260508143417 -17 189 0.0 0.0 0.00 0.00 0.00 1076.2
20260508142917 -17 188 0.0 0.0 0.00 0.00 0.00 1076.3
20260508142145 -17 347 0.0 0.0 0.00 0.00 0.00 1076.3
20260508141643 -17 347 0.0 0.0 0.00 0.00 0.00 1076.3
20260508141110 -17 347 0.0 0.0 0.00 0.00 0.00 1076.3
20260508140546 -17 347 0.0 0.0 0.00 0.00 0.00 1076.3
20260508140047 -17 347 0.0 0.0 0.00 0.00 0.00 1076.3
20260508135513 -17 347 0.0 0.0 0.00 0.00 0.00 1076.4
20260508134959 -17 347 0.0 0.0 0.00 0.00 0.00 1076.4
20260508134459 -17 166 0.0 0.0 0.00 0.00 0.00 1076.5
20260508133946 -17 183 0.0 0.0 0.00 0.00 0.00 1076.5
20260508133438 -17 171 0.0 0.0 0.00 0.00 0.00 1076.5
20260508132928 -17 168 0.0 0.0 0.00 0.00 0.00 1076.6
20260508132401 -17 347 0.0 0.0 0.00 0.00 0.00 1076.5
20260508131853 -17 347 0.0 0.0 0.00 0.00 0.00 1076.6
20260508131354 -17 347 0.0 0.0 0.00 0.00 0.00 1076.6
20260508130847 -17 347 0.0 0.0 0.00 0.00 0.00 1076.7
20260508130335 -17 142 0.0 0.0 0.00 0.00 0.00 1076.7
20260508125752 -17 142 0.0 0.0 0.00 0.00 0.00 1076.7
20260508125254 -17 148 0.0 0.0 0.00 0.00 0.00 1076.7
20260508124749 -17 144 0.0 0.0 0.00 0.00 0.00 1076.8
20260508124229 -17 144 0.0 0.0 0.00 0.00 0.00 1076.8
20260508123651 -17 151 0.0 0.0 0.00 0.00 0.00 1076.9
20260508123126 -17 185 0.0 0.0 0.00 0.00 0.00 1076.8
20260508122612 -17 169 0.0 0.0 0.00 0.00 0.00 1076.9
20260508122112 -17 172 0.0 0.0 0.00 0.00 0.00 1076.9
20260508121556 -17 192 0.0 0.0 0.00 0.00 0.00 1076.8
20260508121055 -17 171 0.0 0.0 0.00 0.00 0.00 1076.8
20260508120548 -17 162 0.0 0.0 0.00 0.00 0.00 1076.8
20260508120045 -17 182 0.0 0.0 0.00 0.00 0.00 1076.8
20260508115545 -17 188 0.0 0.0 0.00 0.00 0.00 1076.9
20260508115246 -17 169 0.0 0.0 0.00 0.00 0.00 1076.8
20260508114455 -17 156 0.0 0.0 0.00 0.00 0.00 1076.8
20260508113952 -17 144 0.0 0.0 0.00 0.00 0.00 1076.8
20260508113455 -17 154 0.0 0.0 0.00 0.00 0.00 1076.8
20260508112953 -17 165 0.0 0.0 0.00 0.00 0.00 1076.9
20260508112449 -17 189 0.0 0.0 0.00 0.00 0.00 1076.8
20260508111933 -17 189 0.0 0.0 0.00 0.00 0.00 1076.8
20260508111425 -17 189 0.0 0.0 0.00 0.00 0.00 1076.7
20260508110847 -17 189 0.0 0.0 0.00 0.00 0.00 1076.7
20260508110301 -17 189 0.0 0.0 0.00 0.00 0.00 1076.7
20260508105749 -17 189 0.0 0.0 0.00 0.00 0.00 1076.7
20260508105243 -17 190 0.0 0.0 0.00 0.00 0.00 1076.7
20260508104738 -17 198 0.0 0.0 0.00 0.00 0.00 1076.6
20260508104208 -17 199 0.0 0.0 0.00 0.00 0.00 1076.6
20260508103706 -17 184 0.0 0.0 0.00 0.00 0.00 1076.5
20260508102919 -17 184 0.0 0.0 0.00 0.00 0.00 1076.7
20260508102137 -17 183 0.0 0.0 0.00 0.00 0.00 1076.6
20260508101605 -17 192 0.0 0.0 0.00 0.00 0.00 1076.5
20260508101052 -17 189 0.0 0.0 0.00 0.00 0.00 1076.6
20260508100550 -17 192 0.0 0.0 0.00 0.00 0.00 1076.5
20260508100317 -17 200 0.0 0.0 0.00 0.00 0.00 1076.5
20260508095534 -17 201 0.0 0.0 0.00 0.00 0.00 1076.5
20260508095245 -17 200 0.0 0.0 0.00 0.00 0.00 1076.5
20260508094444 -17 201 0.0 0.0 0.00 0.00 0.00 1076.6
20260508094201 -17 201 0.0 0.0 0.00 0.00 0.00 1076.5
20260508093426 -17 201 0.0 0.0 0.00 0.00 0.00 1076.5
20260508093149 -17 195 0.0 0.0 0.00 0.00 0.00 1076.4
20260508092350 -17 223 0.0 0.0 0.00 0.00 0.00 1076.4
20260508091850 -17 221 0.0 0.0 0.00 0.00 0.00 1076.3
20260508091315 -17 196 0.0 0.0 0.00 0.00 0.00 1076.4
20260508090748 -17 189 0.0 0.0 0.00 0.00 0.00 1076.4
20260508085648 -17 189 0.0 0.0 0.00 0.00 0.00 1076.3
20260508085100 -17 189 0.0 0.0 0.00 0.00 0.00 1076.3
20260508084538 -17 189 0.0 0.0 0.00 0.00 0.00 1076.4
20260508084038 -17 188 0.0 0.0 0.00 0.00 0.00 1076.2
20260508083539 -17 168 0.0 0.0 0.00 0.00 0.00 1076.2
20260508083248 -17 167 0.0 0.0 0.00 0.00 0.00 1076.0
20260508082504 -17 194 0.0 0.0 0.00 0.00 0.00 1076.1
20260508081948 -17 165 0.0 0.0 0.00 0.00 0.00 1076.0
20260508081435 -17 187 0.0 0.0 0.00 0.00 0.00 1075.9
20260508080909 -17 187 0.0 0.0 0.00 0.00 0.00 1075.9
20260508080353 -17 188 0.0 0.0 0.00 0.00 0.00 1075.8
20260508075844 -17 188 0.0 0.0 0.00 0.00 0.00 1075.8
20260508075330 -17 200 0.0 0.0 0.00 0.00 0.00 1075.7
20260508074752 -17 190 0.0 0.0 0.00 0.00 0.00 1075.6
20260508074237 -17 135 0.0 0.0 0.00 0.00 0.00 1075.6
20260508073232 -17 180 0.0 0.0 0.00 0.00 0.00 1075.6
20260508072646 -17 191 0.0 0.0 0.00 0.00 0.00 1075.6
20260508072145 -17 193 0.0 0.0 0.00 0.00 0.00 1075.6
20260508071639 -17 189 0.0 0.0 0.00 0.00 0.00 1075.6
20260508071129 -17 181 0.0 0.0 0.00 0.00 0.00 1075.6
20260508070616 -17 179 0.0 0.0 0.00 0.00 0.00 1075.6
20260508070109 -17 169 0.0 0.0 0.00 0.00 0.00 1075.5
20260508065607 -17 202 0.0 0.0 0.00 0.00 0.00 1075.6
20260508065108 -17 213 0.0 0.0 0.00 0.00 0.00 1075.6
20260508064834 -17 184 0.0 0.0 0.00 0.00 0.00 1075.6
20260508064103 -17 192 0.0 0.0 0.00 0.00 0.00 1075.6
20260508063600 -17 185 0.0 0.0 0.00 0.00 0.00 1075.5
20260508063055 -17 181 0.0 0.0 0.00 0.00 0.00 1075.5
20260508062545 -17 167 0.0 0.0 0.00 0.00 0.00 1075.5
20260508062045 -17 135 0.0 0.0 0.00 0.00 0.00 1075.5
20260508061545 -17 168 0.0 0.0 0.00 0.00 0.00 1075.4
20260508061045 -17 182 0.0 0.0 0.00 0.00 0.00 1075.5
20260508060533 -17 185 0.0 0.0 0.00 0.00 0.00 1075.4
20260508060005 -17 192 0.0 0.0 0.00 0.00 0.00 1075.4
20260508055459 -17 176 0.0 0.0 0.00 0.00 0.00 1075.4
20260508054947 -17 204 0.0 0.0 0.00 0.00 0.00 1075.4
20260508054447 -17 246 0.0 0.0 0.00 0.00 0.00 1075.4
20260508053947 -17 189 0.0 0.0 0.00 0.00 0.00 1075.4
20260508053437 -17 185 0.0 0.0 0.00 0.00 0.00 1075.4
20260508052931 -17 221 0.0 0.0 0.00 0.00 0.00 1075.5
20260508052430 -17 162 0.0 0.0 0.00 0.00 0.00 1075.4
20260508052156 -17 178 0.0 0.0 0.00 0.00 0.00 1075.4
20260508050923 -17 197 0.0 0.0 0.00 0.00 0.00 1075.4
20260508050423 -17 181 0.0 0.0 0.00 0.00 0.00 1075.5
20260508045921 -17 195 0.0 0.0 0.00 0.00 0.00 1075.5
20260508045417 -17 225 0.0 0.0 0.00 0.00 0.00 1075.6
20260508044917 -17 347 0.0 0.0 0.00 0.00 0.00 1075.5
20260508044413 -17 238 0.0 0.0 0.00 0.00 0.00 1075.5
20260508043911 -17 191 0.0 0.0 0.00 0.00 0.00 1075.6
20260508043354 -17 192 0.0 0.0 0.00 0.00 0.00 1075.7
20260508042849 -17 210 0.0 0.0 0.00 0.00 0.00 1075.8
20260508042347 -17 197 0.0 0.0 0.00 0.00 0.00 1075.8
20260508041843 -17 187 0.0 0.0 0.00 0.00 0.00 1075.8
20260508041337 -17 209 0.0 0.0 0.00 0.00 0.00 1075.9
20260508040837 -17 192 0.0 0.0 0.00 0.00 0.00 1075.9
20260508040334 -17 180 0.0 0.0 0.00 0.00 0.00 1076.0
20260508035834 -17 195 0.0 0.0 0.00 0.00 0.00 1075.9
20260508035605 -17 185 0.0 0.0 0.00 0.00 0.00 1076.0
20260508034833 -17 193 0.0 0.0 0.00 0.00 0.00 1076.0
20260508034333 -17 190 0.0 0.0 0.00 0.00 0.00 1076.0
20260508033833 -17 189 0.0 0.0 0.00 0.00 0.00 1076.1
20260508033333 -17 176 0.0 0.0 0.00 0.00 0.00 1076.2
20260508032831 -17 204 0.0 0.0 0.00 0.00 0.00 1076.2
20260508032327 -17 203 0.0 0.0 0.00 0.00 0.00 1076.3
20260508031817 -17 179 0.0 0.0 0.00 0.00 0.00 1076.3
20260508031308 -17 203 0.0 0.0 0.00 0.00 0.00 1076.3
20260508030759 -17 199 0.0 0.0 0.00 0.00 0.00 1076.4
20260508030259 -17 188 0.0 0.0 0.00 0.00 0.00 1076.5
20260508030029 -17 217 0.0 0.0 0.00 0.00 0.00 1076.6
20260508025252 -17 180 0.0 0.0 0.00 0.00 0.00 1076.6